Biloxi, MS

7:55 PM CST on November 18, 2017 (GMT -0600)
Keesler Air Force Base

Weather History for KBIX - August, 2013

Change the Weather History Date:

Monday, August 5, 2013

  Actual Average Record
Temperature  
Mean Temperature 84 °F -  
Max Temperature 94 °F 90 °F 99 °F (1980)
Min Temperature 75 °F 74 °F 70 °F (1967)
Cooling Degree Days 19    
Growing Degree Days 34 (Base 50)    
Moisture  
Dew Point 75 °F    
Average Humidity 80    
Maximum Humidity 94    
Minimum Humidity 56    
Precipitation  
Precipitation 2.16 in - - ()
Sea Level Pressure  
Sea Level Pressure 30.00 in    
Wind  
Wind Speed 6 mph (South)    
Max Wind Speed 30 mph    
Max Gust Speed 39 mph    
Visibility 8 miles    
Events Fog , Rain , Thunderstorm    
Averages and records for this station are not official NWS values.
T = Trace of Precipitation, MM = Missing Value Source: NWS Daily Summary

Daily Weather History Graph

Daily Weather History Graph

Search for Another Location

Airport or City:

Trip Planner

Search our weather history database for the weather conditions in past years. The results will help you decide how hot, cold, wet, or windy it might be!

Date:

Astronomy

Aug. 05, 2013 Rise Set
Actual Time 6:16 AM CDT 7:46 PM CDT
Civil Twilight 5:50 AM CDT 8:12 PM CDT
Nautical Twilight 5:19 AM CDT 8:42 PM CDT
Astronomical Twilight 4:47 AM CDT 9:15 PM CDT
Moon 5:10 AM CDT (8/5) 6:49 PM CDT (8/5)
Length of Visible Light 14h 21m
Length of Day
13h 29m
Waning Crescent, 1% of the Moon is Illuminated
Aug 5
Waning Crescent
Aug 6
New
Aug 14
First Quarter
Aug 20
Full
Aug 28
Last Quarter

Hourly Weather History & Observations

Time (CDT) Temp. Heat Index Dew Point Humidity Pressure Visibility Wind Dir Wind Speed Gust Speed Precip Events Conditions
12:58 AM 83.3 °F 90.2 °F 74.3 °F 74% 30.04 in 10.0 mi Calm Calm - N/A   Clear
1:58 AM 82.8 °F 91.6 °F 77.2 °F 83% 30.02 in 10.0 mi WSW 5.8 mph - N/A   Clear
2:58 AM 82.8 °F 90.4 °F 75.6 °F 79% 30.01 in 10.0 mi West 4.6 mph - N/A   Clear
3:58 AM 80.8 °F 86.5 °F 75.2 °F 83% 30.01 in 10.0 mi Variable 2.3 mph - N/A   Clear
4:58 AM 79.3 °F - 74.1 °F 84% 30.01 in 10.0 mi Calm Calm - N/A   Clear
5:58 AM 78.8 °F - 73.6 °F 84% 30.02 in 10.0 mi Variable 1.2 mph - N/A   Clear
6:58 AM 78.4 °F - 73.0 °F 83% 30.04 in 10.0 mi North 1.2 mph - N/A   Clear
7:58 AM 81.5 °F 86.9 °F 73.8 °F 77% 30.05 in 10.0 mi Variable 1.2 mph - N/A   Clear
8:58 AM 83.8 °F 91.4 °F 74.8 °F 74% 30.05 in 10.0 mi Variable 2.3 mph - N/A   Clear
9:58 AM 86.5 °F 96.9 °F 76.1 °F 71% 30.06 in 10.0 mi Variable 1.2 mph - N/A   Clear
10:58 AM 89.4 °F 101.1 °F 76.5 °F 65% 30.05 in 10.0 mi Variable 3.5 mph - N/A   Clear
11:58 AM 91.2 °F 103.3 °F 75.9 °F 61% 30.04 in 10.0 mi Variable 3.5 mph - N/A   Clear
12:58 PM 93.4 °F 105.5 °F 75.7 °F 56% 30.02 in 10.0 mi West 4.6 mph - N/A   Partly Cloudy
1:58 PM 93.2 °F 108.7 °F 77.9 °F 61% 30.00 in 10.0 mi SW 6.9 mph - N/A   Scattered Clouds
2:58 PM 93.6 °F 110.5 °F 78.8 °F 62% 29.96 in 10.0 mi SW 16.1 mph - N/A   Partly Cloudy
3:31 PM 91.4 °F 107.2 °F 78.8 °F 66% 29.94 in 10.0 mi SW 13.8 mph - N/A Thunderstorm Thunderstorm
3:58 PM 92.3 °F 109.1 °F 79.0 °F 65% 29.94 in 10.0 mi SW 18.4 mph 24.2 mph N/A Thunderstorm Thunderstorm
4:15 PM 86.0 °F 95.1 °F 75.2 °F 70% 29.98 in 0.5 mi ENE 29.9 mph 39.1 mph N/A Rain , Thunderstorm Heavy Thunderstorms and Rain
4:20 PM 80.6 °F 86.2 °F 75.2 °F 84% 29.97 in 0.5 mi East 26.5 mph 39.1 mph N/A Rain , Thunderstorm Heavy Thunderstorms and Rain
4:25 PM 78.8 °F - 73.4 °F 83% 29.99 in 0.5 mi East 25.3 mph 39.1 mph N/A Fog , Rain , Thunderstorm Heavy Thunderstorms and Rain
4:35 PM 77.0 °F - 73.4 °F 89% 29.99 in 0.2 mi East 23.0 mph 39.1 mph N/A Fog , Rain , Thunderstorm Heavy Thunderstorms and Rain
4:40 PM 75.2 °F - 73.4 °F 94% 30.02 in 0.2 mi East 18.4 mph 34.5 mph N/A Fog , Rain , Thunderstorm Heavy Thunderstorms and Rain
4:51 PM 77.0 °F - 73.4 °F 89% 30.01 in 0.2 mi SE 13.8 mph 27.6 mph N/A Fog , Rain , Thunderstorm Heavy Thunderstorms and Rain
4:56 PM 77.0 °F - 73.4 °F 89% 30.00 in 4.0 mi South 12.7 mph - N/A Rain , Thunderstorm Light Thunderstorms and Rain
4:59 PM 77.0 °F - 73.4 °F 89% 30.01 in 5.0 mi South 9.2 mph - 2.10 in Rain , Thunderstorm Light Thunderstorms and Rain
5:07 PM 77.0 °F - 73.4 °F 89% 29.98 in 6.0 mi Variable 6.9 mph - N/A Rain , Thunderstorm Light Thunderstorms and Rain
5:17 PM 78.8 °F - 73.4 °F 83% 29.99 in 10.0 mi SSE 4.6 mph - N/A Rain , Thunderstorm Light Thunderstorms and Rain
5:19 PM 78.8 °F - 73.4 °F 83% 30.00 in 10.0 mi South 5.8 mph - N/A Thunderstorm Thunderstorm
5:30 PM 78.8 °F - 73.4 °F 83% 30.00 in 10.0 mi WSW 12.7 mph 19.6 mph N/A Thunderstorm Mostly Cloudy
5:36 PM 78.8 °F - 75.2 °F 89% 30.00 in 10.0 mi WSW 12.7 mph 19.6 mph N/A Thunderstorm Thunderstorm
5:54 PM 78.8 °F - 71.6 °F 78% 29.99 in 10.0 mi WSW 6.9 mph 19.6 mph N/A Thunderstorm Mostly Cloudy
5:58 PM 78.4 °F - 72.3 °F 81% 30.00 in 10.0 mi WSW 9.2 mph 19.6 mph 0.06 in Thunderstorm Mostly Cloudy
6:53 PM 78.8 °F - 73.4 °F 83% 30.00 in 10.0 mi Variable 3.5 mph - N/A Thunderstorm Thunderstorm
6:58 PM 78.8 °F - 74.3 °F 86% 30.01 in 10.0 mi NNE 3.5 mph - N/A Thunderstorm Mostly Cloudy
7:01 PM 78.8 °F - 73.4 °F 83% 30.00 in 10.0 mi NNE 4.6 mph - N/A Thunderstorm Thunderstorm
7:08 PM 78.8 °F - 75.2 °F 89% 30.00 in 10.0 mi NE 4.6 mph - N/A   Scattered Clouds
7:58 PM 78.6 °F - 74.8 °F 88% 30.01 in 10.0 mi NE 4.6 mph - N/A   Partly Cloudy
8:58 PM 77.7 °F - 75.4 °F 92% 30.00 in 10.0 mi ENE 6.9 mph - N/A   Clear
9:58 PM 78.3 °F - 74.8 °F 89% 30.01 in 10.0 mi East 4.6 mph - N/A   Clear
10:58 PM 78.3 °F - 74.5 °F 88% 30.00 in 10.0 mi Calm Calm - N/A   Clear
11:58 PM 77.0 °F - 73.9 °F 90% 29.98 in 10.0 mi SW 5.8 mph - N/A   Clear